Year,Month,Day,Hour,Minute,Value (Times are PST for windspeed in km/hr)
2018,02,28,00,00,0.00
2018,02,28,00,01,0.00
2018,02,28,00,02,0.00
2018,02,28,00,03,0.00
2018,02,28,00,04,0.00
2018,02,28,00,05,0.00
2018,02,28,00,06,0.00
2018,02,28,00,07,0.00
2018,02,28,00,08,0.00
2018,02,28,00,09,0.00
2018,02,28,00,10,0.00
2018,02,28,00,11,0.00
2018,02,28,00,12,0.00
2018,02,28,00,13,0.00
2018,02,28,00,14,0.00
2018,02,28,00,15,0.00
2018,02,28,00,16,0.00
2018,02,28,00,17,0.00
2018,02,28,00,18,0.00
2018,02,28,00,19,0.00
2018,02,28,00,20,0.00
2018,02,28,00,21,0.00
2018,02,28,00,22,0.00
2018,02,28,00,23,0.00
2018,02,28,00,24,0.00
2018,02,28,00,25,0.00
2018,02,28,00,26,0.00
2018,02,28,00,27,0.00
2018,02,28,00,28,0.00
2018,02,28,00,29,0.00
2018,02,28,00,30,2.30
2018,02,28,00,31,2.00
2018,02,28,00,32,2.00
2018,02,28,00,33,1.40
2018,02,28,00,34,2.40
2018,02,28,00,35,2.10
2018,02,28,00,36,1.60
2018,02,28,00,37,0.20
2018,02,28,00,38,0.30
2018,02,28,00,39,0.00
2018,02,28,00,40,0.10
2018,02,28,00,41,0.20
2018,02,28,00,42,0.00
2018,02,28,00,43,0.50
2018,02,28,00,44,1.10
2018,02,28,00,45,0.60
2018,02,28,00,46,0.20
2018,02,28,00,47,0.00
2018,02,28,00,48,0.20
2018,02,28,00,49,1.60
2018,02,28,00,50,2.30
2018,02,28,00,51,2.30
2018,02,28,00,52,2.00
2018,02,28,00,53,1.70
2018,02,28,00,54,2.50
2018,02,28,00,55,2.00
2018,02,28,00,56,1.70
2018,02,28,00,57,1.00
2018,02,28,00,58,1.00
2018,02,28,00,59,0.10
2018,02,28,01,00,0.00
2018,02,28,01,01,0.30
2018,02,28,01,02,0.00
2018,02,28,01,03,0.00
2018,02,28,01,04,0.60
2018,02,28,01,05,0.40
2018,02,28,01,06,0.90
2018,02,28,01,07,0.80
2018,02,28,01,08,0.60
2018,02,28,01,09,0.40
2018,02,28,01,10,0.30
2018,02,28,01,11,0.00
2018,02,28,01,12,0.00
2018,02,28,01,13,0.10
2018,02,28,01,14,0.00
2018,02,28,01,15,0.00
2018,02,28,01,16,0.00
2018,02,28,01,17,0.00
2018,02,28,01,18,0.00
2018,02,28,01,19,0.00
2018,02,28,01,20,1.10
2018,02,28,01,21,0.60
2018,02,28,01,22,0.40
2018,02,28,01,23,0.60
2018,02,28,01,24,1.30
2018,02,28,01,25,0.60
2018,02,28,01,26,0.00
2018,02,28,01,27,0.00
2018,02,28,01,28,0.00
2018,02,28,01,29,0.00
2018,02,28,01,30,0.20
2018,02,28,01,31,0.10
2018,02,28,01,32,0.00
2018,02,28,01,33,0.00
2018,02,28,01,34,1.00
2018,02,28,01,35,1.70
2018,02,28,01,36,1.60
2018,02,28,01,37,1.90
2018,02,28,01,38,3.00
2018,02,28,01,39,3.30
2018,02,28,01,40,3.00
2018,02,28,01,41,0.50
2018,02,28,01,42,0.60
2018,02,28,01,43,2.70
2018,02,28,01,44,2.90
2018,02,28,01,45,0.70
2018,02,28,01,46,0.20
2018,02,28,01,47,2.30
2018,02,28,01,48,2.20
2018,02,28,01,49,1.90
2018,02,28,01,50,1.70
2018,02,28,01,51,0.70
2018,02,28,01,52,1.70
2018,02,28,01,53,2.70
2018,02,28,01,54,2.00
2018,02,28,01,55,1.70
2018,02,28,01,56,3.50
2018,02,28,01,57,2.00
2018,02,28,01,58,2.20
2018,02,28,01,59,3.40
2018,02,28,02,00,2.60
2018,02,28,02,01,1.70
2018,02,28,02,02,0.70
2018,02,28,02,03,0.00
2018,02,28,02,04,0.00
2018,02,28,02,05,0.00
2018,02,28,02,06,0.30
2018,02,28,02,07,0.50
2018,02,28,02,08,0.80
2018,02,28,02,09,0.00
2018,02,28,02,10,0.00
2018,02,28,02,11,0.10
2018,02,28,02,12,0.70
2018,02,28,02,13,0.30
2018,02,28,02,14,0.10
2018,02,28,02,15,1.00
2018,02,28,02,16,0.20
2018,02,28,02,17,0.10
2018,02,28,02,18,1.10
2018,02,28,02,19,1.60
2018,02,28,02,20,1.00
2018,02,28,02,21,1.70
2018,02,28,02,22,1.20
2018,02,28,02,23,1.90
2018,02,28,02,24,2.10
2018,02,28,02,25,1.60
2018,02,28,02,26,0.40
2018,02,28,02,27,2.60
2018,02,28,02,28,0.80
2018,02,28,02,29,0.00
2018,02,28,02,30,0.00
2018,02,28,02,31,0.70
2018,02,28,02,32,3.20
2018,02,28,02,33,2.40
2018,02,28,02,34,1.10
2018,02,28,02,35,1.90
2018,02,28,02,36,0.20
2018,02,28,02,37,0.40
2018,02,28,02,38,1.40
2018,02,28,02,39,1.80
2018,02,28,02,40,2.10
2018,02,28,02,41,1.40
2018,02,28,02,42,1.00
2018,02,28,02,43,2.00
2018,02,28,02,44,2.70
2018,02,28,02,45,1.80
2018,02,28,02,46,2.70
2018,02,28,02,47,2.00
2018,02,28,02,48,0.60
2018,02,28,02,49,0.60
2018,02,28,02,50,0.00
2018,02,28,02,51,0.00
2018,02,28,02,52,0.20
2018,02,28,02,53,1.40
2018,02,28,02,54,1.30
2018,02,28,02,55,0.10
2018,02,28,02,56,0.20
2018,02,28,02,57,0.90
2018,02,28,02,58,1.60
2018,02,28,02,59,3.00
2018,02,28,03,00,2.50
2018,02,28,03,01,3.00
2018,02,28,03,02,3.20
2018,02,28,03,03,3.60
2018,02,28,03,04,2.10
2018,02,28,03,05,1.40
2018,02,28,03,06,1.60
2018,02,28,03,07,1.20
2018,02,28,03,08,1.50
2018,02,28,03,09,1.70
2018,02,28,03,10,1.70
2018,02,28,03,11,1.10
2018,02,28,03,12,1.60
2018,02,28,03,13,1.30
2018,02,28,03,14,1.90
2018,02,28,03,15,2.30
2018,02,28,03,16,3.00
2018,02,28,03,17,2.50
2018,02,28,03,18,1.00
2018,02,28,03,19,0.80
2018,02,28,03,20,0.30
2018,02,28,03,21,0.70
2018,02,28,03,22,0.50
2018,02,28,03,23,1.10
2018,02,28,03,24,0.40
2018,02,28,03,25,1.80
2018,02,28,03,26,0.10
2018,02,28,03,27,0.00
2018,02,28,03,28,0.00
2018,02,28,03,29,0.00
2018,02,28,03,30,0.00
2018,02,28,03,31,0.00
2018,02,28,03,32,0.00
2018,02,28,03,33,0.10
2018,02,28,03,34,1.00
2018,02,28,03,35,1.30
2018,02,28,03,36,1.30
2018,02,28,03,37,0.00
2018,02,28,03,38,1.50
2018,02,28,03,39,3.10
2018,02,28,03,40,1.60
2018,02,28,03,41,0.70
2018,02,28,03,42,0.10
2018,02,28,03,43,0.00
2018,02,28,03,44,0.70
2018,02,28,03,45,1.90
2018,02,28,03,46,1.30
2018,02,28,03,47,0.50
2018,02,28,03,48,0.20
2018,02,28,03,49,1.60
2018,02,28,03,50,2.10
2018,02,28,03,51,1.20
2018,02,28,03,52,0.40
2018,02,28,03,53,0.40
2018,02,28,03,54,0.00
2018,02,28,03,55,0.00
2018,02,28,03,56,0.50
2018,02,28,03,57,0.70
2018,02,28,03,58,0.70
2018,02,28,03,59,0.70
2018,02,28,04,00,0.00
2018,02,28,04,01,0.00
2018,02,28,04,02,0.10
2018,02,28,04,03,0.00
2018,02,28,04,04,0.00
2018,02,28,04,05,0.00
2018,02,28,04,06,0.00
2018,02,28,04,07,0.00
2018,02,28,04,08,0.00
2018,02,28,04,09,0.00
2018,02,28,04,10,0.00
2018,02,28,04,11,0.10
2018,02,28,04,12,0.00
2018,02,28,04,13,0.00
2018,02,28,04,14,0.00
2018,02,28,04,15,0.40
2018,02,28,04,16,1.20
2018,02,28,04,17,0.10
2018,02,28,04,18,0.30
2018,02,28,04,19,0.40
2018,02,28,04,20,1.10
2018,02,28,04,21,1.10
2018,02,28,04,22,1.00
2018,02,28,04,23,1.30
2018,02,28,04,24,0.00
2018,02,28,04,25,0.00
2018,02,28,04,26,0.50
2018,02,28,04,27,0.50
2018,02,28,04,28,0.20
2018,02,28,04,29,1.00
2018,02,28,04,30,0.70
2018,02,28,04,31,0.00
2018,02,28,04,32,0.00
2018,02,28,04,33,0.00
2018,02,28,04,34,0.00
2018,02,28,04,35,0.00
2018,02,28,04,36,0.00
2018,02,28,04,37,0.00
2018,02,28,04,38,0.00
2018,02,28,04,39,0.00
2018,02,28,04,40,0.00
2018,02,28,04,41,0.00
2018,02,28,04,42,0.00
2018,02,28,04,43,0.00
2018,02,28,04,44,0.20
2018,02,28,04,45,0.10
2018,02,28,04,46,0.00
2018,02,28,04,47,0.00
2018,02,28,04,48,0.50
2018,02,28,04,49,0.50
2018,02,28,04,50,0.00
2018,02,28,04,51,0.00
2018,02,28,04,52,0.50
2018,02,28,04,53,1.00
2018,02,28,04,54,1.20
2018,02,28,04,55,1.20
2018,02,28,04,56,0.20
2018,02,28,04,57,0.40
2018,02,28,04,58,0.50
2018,02,28,04,59,0.20
2018,02,28,05,00,0.00
2018,02,28,05,01,0.70
2018,02,28,05,02,1.20
2018,02,28,05,03,1.10
2018,02,28,05,04,1.70
2018,02,28,05,05,2.30
2018,02,28,05,06,1.10
2018,02,28,05,07,0.70
2018,02,28,05,08,2.90
2018,02,28,05,09,1.00
2018,02,28,05,10,0.00
2018,02,28,05,11,0.00
2018,02,28,05,12,3.40
2018,02,28,05,13,2.20
2018,02,28,05,14,1.40
2018,02,28,05,15,1.10
2018,02,28,05,16,3.00
2018,02,28,05,17,2.80
2018,02,28,05,18,0.80
2018,02,28,05,19,4.20
2018,02,28,05,20,4.60
2018,02,28,05,21,6.40
2018,02,28,05,22,8.90
2018,02,28,05,23,7.30
2018,02,28,05,24,5.20
2018,02,28,05,25,6.70
2018,02,28,05,26,5.20
2018,02,28,05,27,4.50
2018,02,28,05,28,8.00
2018,02,28,05,29,7.20
2018,02,28,05,30,10.60
2018,02,28,05,31,9.60
2018,02,28,05,32,9.00
2018,02,28,05,33,6.90
2018,02,28,05,34,7.60
2018,02,28,05,35,4.70
2018,02,28,05,36,5.50
2018,02,28,05,37,8.60
2018,02,28,05,38,5.60
2018,02,28,05,39,7.60
2018,02,28,05,40,6.20
2018,02,28,05,41,10.30
2018,02,28,05,42,7.50
2018,02,28,05,43,4.80
2018,02,28,05,44,10.30
2018,02,28,05,45,4.70
2018,02,28,05,46,13.00
2018,02,28,05,47,7.20
2018,02,28,05,48,10.50
2018,02,28,05,49,6.00
2018,02,28,05,50,4.90
2018,02,28,05,51,5.90
2018,02,28,05,52,7.70
2018,02,28,05,53,8.50
2018,02,28,05,54,5.50
2018,02,28,05,55,3.00
2018,02,28,05,56,2.00
2018,02,28,05,57,5.50
2018,02,28,05,58,13.10
2018,02,28,05,59,8.20
2018,02,28,06,00,7.00
2018,02,28,06,01,9.40
2018,02,28,06,02,7.70
2018,02,28,06,03,6.00
2018,02,28,06,04,8.70
2018,02,28,06,05,15.10
2018,02,28,06,06,10.00
2018,02,28,06,07,6.70
2018,02,28,06,08,5.50
2018,02,28,06,09,9.30
2018,02,28,06,10,8.10
2018,02,28,06,11,5.90
2018,02,28,06,12,5.70
2018,02,28,06,13,7.30
2018,02,28,06,14,6.00
2018,02,28,06,15,12.00
2018,02,28,06,16,10.00
2018,02,28,06,17,13.50
2018,02,28,06,18,9.60
2018,02,28,06,19,12.00
2018,02,28,06,20,8.70
2018,02,28,06,21,11.60
2018,02,28,06,22,10.10
2018,02,28,06,23,9.70
2018,02,28,06,24,10.10
2018,02,28,06,25,9.10
2018,02,28,06,26,8.00
2018,02,28,06,27,10.10
2018,02,28,06,28,9.10
2018,02,28,06,29,10.60
2018,02,28,06,30,9.00
2018,02,28,06,31,8.60
2018,02,28,06,32,9.20
2018,02,28,06,33,8.80
2018,02,28,06,34,13.60
2018,02,28,06,35,7.70
2018,02,28,06,36,7.60
2018,02,28,06,37,8.00
2018,02,28,06,38,10.30
2018,02,28,06,39,7.40
2018,02,28,06,40,12.40
2018,02,28,06,41,10.10
2018,02,28,06,42,8.50
2018,02,28,06,43,7.10
2018,02,28,06,44,8.80
2018,02,28,06,45,4.60
2018,02,28,06,46,8.50
2018,02,28,06,47,9.10
2018,02,28,06,48,10.10
2018,02,28,06,49,6.50
2018,02,28,06,50,12.60
2018,02,28,06,51,8.80
2018,02,28,06,52,6.40
2018,02,28,06,53,13.80
2018,02,28,06,54,8.90
2018,02,28,06,55,11.70
2018,02,28,06,56,10.30
2018,02,28,06,57,10.80
2018,02,28,06,58,7.20
2018,02,28,06,59,6.90
2018,02,28,07,00,8.60
2018,02,28,07,01,12.10
2018,02,28,07,02,9.80
2018,02,28,07,03,13.10
2018,02,28,07,04,16.60
2018,02,28,07,05,15.90
2018,02,28,07,06,21.50
2018,02,28,07,07,11.80
2018,02,28,07,08,12.50
2018,02,28,07,09,21.00
2018,02,28,07,10,17.60
2018,02,28,07,11,12.00
2018,02,28,07,12,15.60
2018,02,28,07,13,18.20
2018,02,28,07,14,11.00
2018,02,28,07,15,17.10
2018,02,28,07,16,9.80
2018,02,28,07,17,15.30
2018,02,28,07,18,19.40
2018,02,28,07,19,11.90
2018,02,28,07,20,16.00
2018,02,28,07,21,23.20
2018,02,28,07,22,16.00
2018,02,28,07,23,17.80
2018,02,28,07,24,18.90
2018,02,28,07,25,10.70
2018,02,28,07,26,11.50
2018,02,28,07,27,19.70
2018,02,28,07,28,16.50
2018,02,28,07,29,13.40
2018,02,28,07,30,11.80
2018,02,28,07,31,11.30
2018,02,28,07,32,12.20
2018,02,28,07,33,13.90
2018,02,28,07,34,10.20
2018,02,28,07,35,15.80
2018,02,28,07,36,13.50
2018,02,28,07,37,19.10
2018,02,28,07,38,12.90
2018,02,28,07,39,15.00
2018,02,28,07,40,16.20
2018,02,28,07,41,10.90
2018,02,28,07,42,14.20
2018,02,28,07,43,14.10
2018,02,28,07,44,15.00
2018,02,28,07,45,16.50
2018,02,28,07,46,12.80
2018,02,28,07,47,14.00
2018,02,28,07,48,10.50
2018,02,28,07,49,15.40
2018,02,28,07,50,10.70
2018,02,28,07,51,17.90
2018,02,28,07,52,16.50
2018,02,28,07,53,22.10
2018,02,28,07,54,15.80
2018,02,28,07,55,17.60
2018,02,28,07,56,18.60
2018,02,28,07,57,8.50
2018,02,28,07,58,10.20
2018,02,28,07,59,11.10
2018,02,28,08,00,15.10
2018,02,28,08,01,7.40
2018,02,28,08,02,17.10
2018,02,28,08,03,12.80
2018,02,28,08,04,9.20
2018,02,28,08,05,12.90
2018,02,28,08,06,13.40
2018,02,28,08,07,16.10
2018,02,28,08,08,8.80
2018,02,28,08,09,12.50
2018,02,28,08,10,14.10
2018,02,28,08,11,14.20
2018,02,28,08,12,8.90
2018,02,28,08,13,18.40
2018,02,28,08,14,15.30
2018,02,28,08,15,20.60
2018,02,28,08,16,19.70
2018,02,28,08,17,13.20
2018,02,28,08,18,13.50
2018,02,28,08,19,8.30
2018,02,28,08,20,15.00
2018,02,28,08,21,14.90
2018,02,28,08,22,16.30
2018,02,28,08,23,19.80
2018,02,28,08,24,11.70
2018,02,28,08,25,9.70
2018,02,28,08,26,16.50
2018,02,28,08,27,11.70
2018,02,28,08,28,17.80
2018,02,28,08,29,8.20
2018,02,28,08,30,13.30
2018,02,28,08,31,7.20
2018,02,28,08,32,10.00
2018,02,28,08,33,15.20
2018,02,28,08,34,15.40
2018,02,28,08,35,23.80
2018,02,28,08,36,17.10
2018,02,28,08,37,14.70
2018,02,28,08,38,18.10
2018,02,28,08,39,21.20
2018,02,28,08,40,21.80
2018,02,28,08,41,15.70
2018,02,28,08,42,16.20
2018,02,28,08,43,21.30
2018,02,28,08,44,17.20
2018,02,28,08,45,21.70
2018,02,28,08,46,22.00
2018,02,28,08,47,21.10
2018,02,28,08,48,13.70
2018,02,28,08,49,15.40
2018,02,28,08,50,15.70
2018,02,28,08,51,16.30
2018,02,28,08,52,18.90
2018,02,28,08,53,9.20
2018,02,28,08,54,12.00
2018,02,28,08,55,11.40
2018,02,28,08,56,14.70
2018,02,28,08,57,21.10
2018,02,28,08,58,6.30
2018,02,28,08,59,16.90
2018,02,28,09,00,10.60
2018,02,28,09,01,12.10
2018,02,28,09,02,18.70
2018,02,28,09,03,22.40
2018,02,28,09,04,13.20
2018,02,28,09,05,15.70
2018,02,28,09,06,16.30
2018,02,28,09,07,26.20
2018,02,28,09,08,29.00
2018,02,28,09,09,27.40
2018,02,28,09,10,22.10
2018,02,28,09,11,17.00
2018,02,28,09,12,23.40
2018,02,28,09,13,25.90
2018,02,28,09,14,24.70
2018,02,28,09,15,19.30
2018,02,28,09,16,18.70
2018,02,28,09,17,10.60
2018,02,28,09,18,25.60
2018,02,28,09,19,13.80
2018,02,28,09,20,13.70
2018,02,28,09,21,18.40
2018,02,28,09,22,21.00
2018,02,28,09,23,21.30
2018,02,28,09,24,27.60
2018,02,28,09,25,22.80
2018,02,28,09,26,16.80
2018,02,28,09,27,17.30
2018,02,28,09,28,29.40
2018,02,28,09,29,16.90
2018,02,28,09,30,24.60
2018,02,28,09,31,24.70
2018,02,28,09,32,19.40
2018,02,28,09,33,33.70
2018,02,28,09,34,24.40
2018,02,28,09,35,22.00
2018,02,28,09,36,22.70
2018,02,28,09,37,17.80
2018,02,28,09,38,29.70
2018,02,28,09,39,23.70
2018,02,28,09,40,16.90
2018,02,28,09,41,18.10
2018,02,28,09,42,21.90
2018,02,28,09,43,24.40
2018,02,28,09,44,19.60
2018,02,28,09,45,17.40
2018,02,28,09,46,20.70
2018,02,28,09,47,21.20
2018,02,28,09,48,25.50
2018,02,28,09,49,19.00
2018,02,28,09,50,13.90
2018,02,28,09,51,18.10
2018,02,28,09,52,25.60
2018,02,28,09,53,22.10
2018,02,28,09,54,22.20
2018,02,28,09,55,17.80
2018,02,28,09,56,18.30
2018,02,28,09,57,20.10
2018,02,28,09,58,17.20
2018,02,28,09,59,15.50
2018,02,28,10,00,22.50
2018,02,28,10,01,27.90
2018,02,28,10,02,23.20
2018,02,28,10,03,21.70
2018,02,28,10,04,32.40
2018,02,28,10,05,17.50
2018,02,28,10,06,17.80
2018,02,28,10,07,27.20
2018,02,28,10,08,24.00
2018,02,28,10,09,16.60
2018,02,28,10,10,17.80
2018,02,28,10,11,17.50
2018,02,28,10,12,12.60
2018,02,28,10,13,16.20
2018,02,28,10,14,22.40
2018,02,28,10,15,23.60
2018,02,28,10,16,24.90
2018,02,28,10,17,21.80
2018,02,28,10,18,21.10
2018,02,28,10,19,18.40
2018,02,28,10,20,18.00
2018,02,28,10,21,27.50
2018,02,28,10,22,23.70
2018,02,28,10,23,24.20
2018,02,28,10,24,21.90
2018,02,28,10,25,26.20
2018,02,28,10,26,26.60
2018,02,28,10,27,24.00
2018,02,28,10,28,22.80
2018,02,28,10,29,16.40
2018,02,28,10,30,22.20
2018,02,28,10,31,17.60
2018,02,28,10,32,22.40
2018,02,28,10,33,17.80
2018,02,28,10,34,23.20
2018,02,28,10,35,21.20
2018,02,28,10,36,25.20
2018,02,28,10,37,20.10
2018,02,28,10,38,25.30
2018,02,28,10,39,29.60
2018,02,28,10,40,32.90
2018,02,28,10,41,29.50
2018,02,28,10,42,26.40
2018,02,28,10,43,25.40
2018,02,28,10,44,31.00
2018,02,28,10,45,24.40
2018,02,28,10,46,28.00
2018,02,28,10,47,28.10
2018,02,28,10,48,17.00
2018,02,28,10,49,19.10
2018,02,28,10,50,22.10
2018,02,28,10,51,20.00
2018,02,28,10,52,22.30
2018,02,28,10,53,26.50
2018,02,28,10,54,21.60
2018,02,28,10,55,18.80
2018,02,28,10,56,13.60
2018,02,28,10,57,20.40
2018,02,28,10,58,22.20
2018,02,28,10,59,21.00
2018,02,28,11,00,25.40
2018,02,28,11,01,32.90
2018,02,28,11,02,36.00
2018,02,28,11,03,30.60
2018,02,28,11,04,26.30
2018,02,28,11,05,23.80
2018,02,28,11,06,21.90
2018,02,28,11,07,21.10
2018,02,28,11,08,20.10
2018,02,28,11,09,19.50
2018,02,28,11,10,16.80
2018,02,28,11,11,29.90
2018,02,28,11,12,23.20
2018,02,28,11,13,28.70
2018,02,28,11,14,26.30
2018,02,28,11,15,26.60
2018,02,28,11,16,19.70
2018,02,28,11,17,25.50
2018,02,28,11,18,25.40
2018,02,28,11,19,28.50
2018,02,28,11,20,17.30
2018,02,28,11,21,15.40
2018,02,28,11,22,22.20
2018,02,28,11,23,25.50
2018,02,28,11,24,22.30
2018,02,28,11,25,21.10
2018,02,28,11,26,19.40
2018,02,28,11,27,25.50
2018,02,28,11,28,27.60
2018,02,28,11,29,26.70
2018,02,28,11,30,23.10
2018,02,28,11,31,27.10
2018,02,28,11,32,14.40
2018,02,28,11,33,14.70
2018,02,28,11,34,17.90
2018,02,28,11,35,18.20
2018,02,28,11,36,19.10
2018,02,28,11,37,16.50
2018,02,28,11,38,22.80
2018,02,28,11,39,22.40
2018,02,28,11,40,26.10
2018,02,28,11,41,14.10
2018,02,28,11,42,19.80
2018,02,28,11,43,16.50
2018,02,28,11,44,20.00
2018,02,28,11,45,22.10
2018,02,28,11,46,13.90
2018,02,28,11,47,23.40
2018,02,28,11,48,16.00
2018,02,28,11,49,20.20
2018,02,28,11,50,14.30
2018,02,28,11,51,34.50
2018,02,28,11,52,21.20
2018,02,28,11,53,17.50
2018,02,28,11,54,17.50
2018,02,28,11,55,20.70
2018,02,28,11,56,34.30
2018,02,28,11,57,20.90
2018,02,28,11,58,16.00
2018,02,28,11,59,21.80
2018,02,28,12,00,25.90
2018,02,28,12,01,21.60
2018,02,28,12,02,21.70
2018,02,28,12,03,17.90
2018,02,28,12,04,22.50
2018,02,28,12,05,29.00
2018,02,28,12,06,20.90
2018,02,28,12,07,24.10
2018,02,28,12,08,17.00
2018,02,28,12,09,14.70
2018,02,28,12,10,24.90
2018,02,28,12,11,22.10
2018,02,28,12,12,29.30
2018,02,28,12,13,31.60
2018,02,28,12,14,21.90
2018,02,28,12,15,19.80
2018,02,28,12,16,17.30
2018,02,28,12,17,25.10
2018,02,28,12,18,26.30
2018,02,28,12,19,24.00
2018,02,28,12,20,20.30
2018,02,28,12,21,21.60
2018,02,28,12,22,19.60
2018,02,28,12,23,9.10
2018,02,28,12,24,26.20
2018,02,28,12,25,28.70
2018,02,28,12,26,28.50
2018,02,28,12,27,20.10
2018,02,28,12,28,19.70
2018,02,28,12,29,21.20
2018,02,28,12,30,26.80
2018,02,28,12,31,15.30
2018,02,28,12,32,22.70
2018,02,28,12,33,20.60
2018,02,28,12,34,11.50
2018,02,28,12,35,13.10
2018,02,28,12,36,17.80
2018,02,28,12,37,18.80
2018,02,28,12,38,24.00
2018,02,28,12,39,17.50
2018,02,28,12,40,22.60
2018,02,28,12,41,22.80
2018,02,28,12,42,22.90
2018,02,28,12,43,25.70
2018,02,28,12,44,23.30
2018,02,28,12,45,21.20
2018,02,28,12,46,20.90
2018,02,28,12,47,18.30
2018,02,28,12,48,16.30
2018,02,28,12,49,28.00
2018,02,28,12,50,22.20
2018,02,28,12,51,20.90
2018,02,28,12,52,19.30
2018,02,28,12,53,24.40
2018,02,28,12,54,15.40
2018,02,28,12,55,20.00
2018,02,28,12,56,21.00
2018,02,28,12,57,22.40
2018,02,28,12,58,15.30
2018,02,28,12,59,16.90
2018,02,28,13,00,15.10
2018,02,28,13,01,35.90
2018,02,28,13,02,26.50
2018,02,28,13,03,21.10
2018,02,28,13,04,22.20
2018,02,28,13,05,28.00
2018,02,28,13,06,22.80
2018,02,28,13,07,21.20
2018,02,28,13,08,25.40
2018,02,28,13,09,20.30
2018,02,28,13,10,19.00
2018,02,28,13,11,19.50
2018,02,28,13,12,25.30
2018,02,28,13,13,21.90
2018,02,28,13,14,21.60
2018,02,28,13,15,28.10
2018,02,28,13,16,20.00
2018,02,28,13,17,25.40
2018,02,28,13,18,19.40
2018,02,28,13,19,22.20
2018,02,28,13,20,24.80
2018,02,28,13,21,20.90
2018,02,28,13,22,17.90
2018,02,28,13,23,19.40
2018,02,28,13,24,27.50
2018,02,28,13,25,27.60
2018,02,28,13,26,28.70
2018,02,28,13,27,29.50
2018,02,28,13,28,28.10
2018,02,28,13,29,24.90
2018,02,28,13,30,22.50
2018,02,28,13,31,25.40
2018,02,28,13,32,18.60
2018,02,28,13,33,21.80
2018,02,28,13,34,26.20
2018,02,28,13,35,29.60
2018,02,28,13,36,25.20
2018,02,28,13,37,30.20
2018,02,28,13,38,20.50
2018,02,28,13,39,25.30
2018,02,28,13,40,11.70
2018,02,28,13,41,16.50
2018,02,28,13,42,17.30
2018,02,28,13,43,28.10
2018,02,28,13,44,22.50
2018,02,28,13,45,32.10
2018,02,28,13,46,20.10
2018,02,28,13,47,25.10
2018,02,28,13,48,24.60
2018,02,28,13,49,22.70
2018,02,28,13,50,28.60
2018,02,28,13,51,17.70
2018,02,28,13,52,26.30
2018,02,28,13,53,24.00
2018,02,28,13,54,23.50
2018,02,28,13,55,17.00
2018,02,28,13,56,19.60
2018,02,28,13,57,23.20
2018,02,28,13,58,16.00
2018,02,28,13,59,26.60
2018,02,28,14,00,21.80
2018,02,28,14,01,28.10
2018,02,28,14,02,24.10
2018,02,28,14,03,17.20
2018,02,28,14,04,19.10
2018,02,28,14,05,15.60
2018,02,28,14,06,24.10
2018,02,28,14,07,19.20
2018,02,28,14,08,18.40
2018,02,28,14,09,23.50
2018,02,28,14,10,25.30
2018,02,28,14,11,25.20
2018,02,28,14,12,26.40
2018,02,28,14,13,25.30
2018,02,28,14,14,33.30
2018,02,28,14,15,28.40
2018,02,28,14,16,24.20
2018,02,28,14,17,27.80
2018,02,28,14,18,25.00
2018,02,28,14,19,20.80
2018,02,28,14,20,16.60
2018,02,28,14,21,22.20
2018,02,28,14,22,19.90
2018,02,28,14,23,19.90
2018,02,28,14,24,18.20
2018,02,28,14,25,25.90
2018,02,28,14,26,29.00
2018,02,28,14,27,29.90
2018,02,28,14,28,23.70
2018,02,28,14,29,32.40
2018,02,28,14,30,17.60
2018,02,28,14,31,23.10
2018,02,28,14,32,16.60
2018,02,28,14,33,21.80
2018,02,28,14,34,26.80
2018,02,28,14,35,20.70
2018,02,28,14,36,27.40
2018,02,28,14,37,10.20
2018,02,28,14,38,17.80
2018,02,28,14,39,22.50
2018,02,28,14,40,17.00
2018,02,28,14,41,16.30
2018,02,28,14,42,17.60
2018,02,28,14,43,22.40
2018,02,28,14,44,21.00
2018,02,28,14,45,25.10
2018,02,28,14,46,12.50
2018,02,28,14,47,15.90
2018,02,28,14,48,22.40
2018,02,28,14,49,15.90
2018,02,28,14,50,24.10
2018,02,28,14,51,34.40
2018,02,28,14,52,32.10
2018,02,28,14,53,31.20
2018,02,28,14,54,28.10
2018,02,28,14,55,32.10
2018,02,28,14,56,26.70
2018,02,28,14,57,22.40
2018,02,28,14,58,18.80
2018,02,28,14,59,18.80
2018,02,28,15,00,20.00
2018,02,28,15,01,29.80
2018,02,28,15,02,22.60
2018,02,28,15,03,25.80
2018,02,28,15,04,28.30
2018,02,28,15,05,31.20
2018,02,28,15,06,37.90
2018,02,28,15,07,26.20
2018,02,28,15,08,25.00
2018,02,28,15,09,19.10
2018,02,28,15,10,22.90
2018,02,28,15,11,19.40
2018,02,28,15,12,29.50
2018,02,28,15,13,19.60
2018,02,28,15,14,28.10
2018,02,28,15,15,23.60
2018,02,28,15,16,23.60
2018,02,28,15,17,19.10
2018,02,28,15,18,20.30
2018,02,28,15,19,30.90
2018,02,28,15,20,23.50
2018,02,28,15,21,17.80
2018,02,28,15,22,22.00
2018,02,28,15,23,37.00
2018,02,28,15,24,43.80
2018,02,28,15,25,21.00
2018,02,28,15,26,23.10
2018,02,28,15,27,26.20
2018,02,28,15,28,20.00
2018,02,28,15,29,19.50
2018,02,28,15,30,17.00
2018,02,28,15,31,25.10
2018,02,28,15,32,23.40
2018,02,28,15,33,38.10
2018,02,28,15,34,34.80
2018,02,28,15,35,21.80
2018,02,28,15,36,22.80
2018,02,28,15,37,21.90
2018,02,28,15,38,16.10
2018,02,28,15,39,26.50
2018,02,28,15,40,26.40
2018,02,28,15,41,29.60
2018,02,28,15,42,18.70
2018,02,28,15,43,34.20
2018,02,28,15,44,23.90
2018,02,28,15,45,19.30
2018,02,28,15,46,15.10
2018,02,28,15,47,20.10
2018,02,28,15,48,26.70
2018,02,28,15,49,28.30
2018,02,28,15,50,23.60
2018,02,28,15,51,17.90
2018,02,28,15,52,20.00
2018,02,28,15,53,23.40
2018,02,28,15,54,21.00
2018,02,28,15,55,16.80
2018,02,28,15,56,20.10
2018,02,28,15,57,26.20
2018,02,28,15,58,18.10
2018,02,28,15,59,16.90
2018,02,28,16,00,31.30
2018,02,28,16,01,17.30
2018,02,28,16,02,16.20
2018,02,28,16,03,27.10
2018,02,28,16,04,22.90
2018,02,28,16,05,18.40
2018,02,28,16,06,30.90
2018,02,28,16,07,19.40
2018,02,28,16,08,22.20
2018,02,28,16,09,26.00
2018,02,28,16,10,19.00
2018,02,28,16,11,28.70
2018,02,28,16,12,26.00
2018,02,28,16,13,26.70
2018,02,28,16,14,23.30
2018,02,28,16,15,16.70
2018,02,28,16,16,10.60
2018,02,28,16,17,15.70
2018,02,28,16,18,14.60
2018,02,28,16,19,12.30
2018,02,28,16,20,19.30
2018,02,28,16,21,20.70
2018,02,28,16,22,14.40
2018,02,28,16,23,11.70
2018,02,28,16,24,12.50
2018,02,28,16,25,14.40
2018,02,28,16,26,29.30
2018,02,28,16,27,19.60
2018,02,28,16,28,19.40
2018,02,28,16,29,17.90
2018,02,28,16,30,26.50
2018,02,28,16,31,27.10
2018,02,28,16,32,20.60
2018,02,28,16,33,18.70
2018,02,28,16,34,19.00
2018,02,28,16,35,23.70
2018,02,28,16,36,23.50
2018,02,28,16,37,22.90
2018,02,28,16,38,22.60
2018,02,28,16,39,23.50
2018,02,28,16,40,18.60
2018,02,28,16,41,16.30
2018,02,28,16,42,25.30
2018,02,28,16,43,27.80
2018,02,28,16,44,28.00
2018,02,28,16,45,21.30
2018,02,28,16,46,19.30
2018,02,28,16,47,18.00
2018,02,28,16,48,20.80
2018,02,28,16,49,17.60
2018,02,28,16,50,9.80
2018,02,28,16,51,21.20
2018,02,28,16,52,19.40
2018,02,28,16,53,17.80
2018,02,28,16,54,25.70
2018,02,28,16,55,17.30
2018,02,28,16,56,21.70
2018,02,28,16,57,20.80
2018,02,28,16,58,29.60
2018,02,28,16,59,23.40
2018,02,28,17,00,21.90
2018,02,28,17,01,32.80
2018,02,28,17,02,19.40
2018,02,28,17,03,19.60
2018,02,28,17,04,22.20
2018,02,28,17,05,17.50
2018,02,28,17,06,23.50
2018,02,28,17,07,26.10
2018,02,28,17,08,26.60
2018,02,28,17,09,23.90
2018,02,28,17,10,15.10
2018,02,28,17,11,31.40
2018,02,28,17,12,22.00
2018,02,28,17,13,21.00
2018,02,28,17,14,29.30
2018,02,28,17,15,30.20
2018,02,28,17,16,29.60
2018,02,28,17,17,21.60
2018,02,28,17,18,23.60
2018,02,28,17,19,20.90
2018,02,28,17,20,24.00
2018,02,28,17,21,25.80
2018,02,28,17,22,13.50
2018,02,28,17,23,25.20
2018,02,28,17,24,22.60
2018,02,28,17,25,25.70
2018,02,28,17,26,16.40
2018,02,28,17,27,19.30
2018,02,28,17,28,13.80
2018,02,28,17,29,15.00
2018,02,28,17,30,18.30
2018,02,28,17,31,12.30
2018,02,28,17,32,21.60
2018,02,28,17,33,19.00
2018,02,28,17,34,20.80
2018,02,28,17,35,15.50
2018,02,28,17,36,19.30
2018,02,28,17,37,12.90